This is the latest recevied weather packets stored in our database for station/object WA3NOA-2. If no packets are shown the sender has not sent any weather packets the latest 10 day(s).
| Time | Temp. | Humidity | Pressure | Rain* | Wind** | Luminosity | Snow |
|---|---|---|---|---|---|---|---|
| 1777663026 | 17.78° C | 42% | 1005.3 hPa | 0 mm | - | - | - |
| 1777662726 | 17.22° C | 46% | 1005.3 hPa | 0 mm | - | - | - |
| 1777662426 | 17.22° C | 46% | 1005.5 hPa | 0 mm | - | - | - |
| 1777662188 | 16.67° C | 45% | 1005.5 hPa | 0 mm | - | - | - |
| 1777662126 | 17.22° C | 43% | 1005.5 hPa | 0 mm | - | - | - |
| 1777661826 | 17.78° C | 44% | 1005.6 hPa | 0 mm | - | - | - |
| 1777661526 | 18.33° C | 41% | 1005.8 hPa | 0 mm | - | - | - |
| 1777661287 | 17.78° C | 42% | 1005.8 hPa | 0 mm | - | - | - |
| 1777661226 | 17.78° C | 42% | 1005.8 hPa | 0 mm | - | - | - |
| 1777660926 | 17.78° C | 43% | 1005.8 hPa | 0 mm | - | - | - |
| 1777660626 | 17.78° C | 44% | 1005.9 hPa | 0 mm | - | - | - |
| 1777660387 | 17.22° C | 41% | 1005.8 hPa | 0 mm | - | - | - |
| 1777660326 | 17.22° C | 41% | 1005.9 hPa | 0 mm | - | - | - |
| 1777660026 | 17.78° C | 43% | 1005.9 hPa | 0 mm | - | - | - |
| 1777659726 | 17.22° C | 42% | 1005.9 hPa | 0 mm | - | - | - |
| 1777659426 | 17.78° C | 42% | 1005.9 hPa | 0 mm | - | - | - |
| 1777659126 | 16.67° C | 42% | 1005.9 hPa | 0 mm | - | - | - |
| 1777658826 | 16.67° C | 41% | 1005.9 hPa | 0 mm | - | - | - |
| 1777658587 | 16.67° C | 41% | 1005.9 hPa | 0 mm | - | - | - |
| 1777658526 | 16.67° C | 41% | 1005.9 hPa | 0 mm | - | - | - |
| 1777658226 | 17.22° C | 40% | 1005.9 hPa | 0 mm | - | - | - |
| 1777657926 | 17.78° C | 43% | 1006 hPa | 0 mm | - | - | - |
| 1777657688 | 16.67° C | 48% | 1005.9 hPa | 0 mm | - | - | - |
| 1777657626 | 16.11° C | 48% | 1006 hPa | 0 mm | - | - | - |
| 1777657326 | 16.11° C | 40% | 1006 hPa | 0 mm | - | - | - |
* Rain latest hour (hover to see other rain measurements)
** Current wind speed in m/s (hover to see current wind gust speed)